sat.trackr.live / text

‹ back to catalog

STARLINK-5452

NORAD 54772 · 2022-175Q

PAYLOAD ACTIVE UNKNOWN

§ Identity

Operator
Country
US
Launch date
2022-12-17
Launch site
AFETR
Launch vehicle
Mass (kg)
RCS (m²)

Purposes: comms

External: N2YO · Heavens-Above · Gunter

§ Orbital elements

Epoch: 2026-05-25T02:31:24.714624Z

Period
95.44 min
Inclination
53.2124°
Eccentricity
0.0001391
Mean motion
15.08838218 rev/d
Perigee alt
538.8 km
Apogee alt
540.7 km
Semi-major
6,917.9 km
B*
2.0841e-5
RAAN
46.2216°
Arg perigee
81.4772°
Mean anomaly
278.6378°
Rev number
19,166

§ Raw data

STARLINK-54521 54772U 22175Q   26145.10514716  .00000044  00000+0  20841-4 0  99912 54772  53.2124  46.2216 0001391  81.4772 278.6378 15.08838218191666

JSON: /api/v1/satellites/54772 · /tle

For live sub-satellite position, see the globe view (requires WebGL).

§ Visibility from observer

Set your observer location to see the next 7 days of passes ≥ 10°. The values pass through the URL so the page stays shareable.

No JS? Fill the form by hand. The geolocation button needs JavaScript.